Location: Ash Swamp
(41.5170°N, 74.6157°W)
Time: 17:19:36
(UTC+00:00)

IRIDIUM 103 - Pass Details

Date: 14 July 2020
Orbit: 776 x 779 km, 86.4° (Epoch: 04 August)

Event Time Altitude Azimuth Distance (km) Brightness Sun altitude
Exits shadow 03:36:00 59° 127° (SE) 895 4.3 -23.6°
Maximum altitude 03:36:38 65° 89° (E) 856 4.3 -23.7°
Drops below altitude 10° 03:41:49 10° 9° (N) 2,338 7.6 -24.0°
Sets 03:44:11 0° 6° (N) 3,270 8.6 -24.2°
